THOR BURNER 2 R/B, 2422

Orbit data source: Space-Track

THOR BURNER 2 R/B, 2422 is space debris in SSO originally from a launch on Fri, 16 Sep 1966 UTC launched from the Air Force Western Test Range (AFWTR). Debris objects in space refer to the collection of defunct objects orbiting the Earth. Examples of debris include non-operational satellites, rocket bodies, and fragments generated from explosions, collisions, or faulty payload assembly.

Loading next visibility...
Identifier
2422, 1966-082B
Orbit
SSO
Country
Flag of USUS
Related business
Manufacturer
Thiokol/TE
Mission
Spacecraft
Bus & Motor
STAR 37, Unknown motor
Mass
136 kg wet, 136 kg dry
Launch date (UTC)
1966-09-16 (60 years ago)
Launch vehicle
Unknown
Launch site
Air Force Western Test Range (AFWTR)
Object type
Payload
Rocket body
Debris
Shape & HBR
FRUST, 1.1 m
Radar Cross Section
Large (>1 m²)

Expand to show TLE details & history
Last TLE update: 12 hours ago

TLE from 12 hours ago
0 THOR BURNER 2 R/B
1 02422U 66082B   26262.66416264  .00000184  00000-0  59826-4 0  9992
2 02422  98.2572  54.9798 0108703 279.1436  79.7472 14.46825208128937
Epoch: 2026-09-19T15:56Z
TLE epoch observation values (Epoch: 2026-09-19T15:56:23.652Z)
Latitude
0.00002°
Longitude
177.31179°
Altitude
726.051 km
Speed
7.499 km/s
True Right ascension
03h 39m 55s
True Declination
0° 00' 00"
Sunlit
Object was in full shadow at epoch
Visualization orbit readout
Latitude
Unknown
Longitude
Unknown
Altitude
Unknown
Speed
Unknown
Apparent Right ascension
Unknown
Apparent Declination
Unknown
Sunlit
N/A
Visualization observer readout
Local Sidereal Time
20:34:36
Azimuth
Unknown
Elevation
Unknown
Doppler factor
Unknown
Orbital elements
Apogee altitude
810.439 km
Perigee altitude
655.836 km
Semi-major axis
7,111.275 km
Eccentricity
0.01087
Inclination
98.2572°
RAAN
54.9798°
Arg. of periapsis
279.1436°
True anomaly
80.97583°
Mean anomaly
79.7472°
Eccentric anomaly
80.36123°
Mean motion
3.61928 °/min
Orbital period
99.47 mins
BSTAR
0.000059826
Loading maneuver chart data...
Computing Atmospheric mass density...
Loading historical data...
Loading historical data...
Loading historical data...
Loading historical data...
Loading historical data...
Loading historical data...
Loading historical data...
Other satellites on launch #82 in the year 1966 (1966-09-16 UTC)

Documentation

Showing up to 5 results
|